Time,TemperatureF,DewpointF,PressureIn,WindDirection,WindDirectionDegrees,WindSpeedMPH,WindSpeedGustMPH,Humidity,HourlyPrecipIn,Conditions,Clouds,dailyrainin,SoftwareType,DateUTC
2013-01-20 00:02:00,26.0,16.0,-100.00,NE,35,18.0,24.0,65,0.00,,,-99.99,,2013-01-20 06:02:00,
2013-01-20 00:12:00,26.0,16.0,-100.00,NE,35,17.0,23.0,66,0.00,,,-99.99,,2013-01-20 06:12:00,
2013-01-20 00:22:00,25.0,17.0,-100.00,NNE,30,21.0,24.0,69,0.00,,,-99.99,,2013-01-20 06:22:00,
2013-01-20 00:33:00,24.0,16.0,-100.00,NE,35,18.0,21.0,69,0.00,,,-99.99,,2013-01-20 06:33:00,
2013-01-20 00:42:00,24.0,16.0,-100.00,NE,35,18.0,21.0,69,0.00,,,-99.99,,2013-01-20 06:42:00,
2013-01-20 00:52:00,23.0,15.0,-100.00,NNE,25,16.0,21.0,70,0.00,,,-99.99,,2013-01-20 06:52:00,
2013-01-20 01:02:00,23.0,15.0,-100.00,NNE,25,16.0,21.0,70,0.00,,,-99.99,,2013-01-20 07:02:00,
2013-01-20 01:12:00,23.0,15.0,-100.00,NE,35,14.0,18.0,71,0.00,,,-99.99,,2013-01-20 07:12:00,
2013-01-20 01:22:00,23.0,15.0,-100.00,NNE,30,11.0,16.0,72,0.00,,,-99.99,,2013-01-20 07:22:00,
2013-01-20 01:32:00,22.0,15.0,-100.00,NNE,30,11.0,14.0,74,0.00,,,-99.99,,2013-01-20 07:32:00,
2013-01-20 01:42:00,22.0,15.0,-100.00,NNE,30,11.0,14.0,74,0.00,,,-99.99,,2013-01-20 07:42:00,
2013-01-20 01:52:00,21.0,15.0,-100.00,NNE,15,9.0,13.0,75,0.00,,,-99.99,,2013-01-20 07:52:00,
2013-01-20 02:02:00,21.0,15.0,-100.00,NNE,15,9.0,13.0,75,0.00,,,-99.99,,2013-01-20 08:02:00,
2013-01-20 02:12:00,21.0,15.0,-100.00,North,0,9.0,11.0,76,0.00,,,-99.99,,2013-01-20 08:12:00,
2013-01-20 02:22:00,21.0,15.0,-100.00,NE,35,7.0,10.0,78,0.00,,,-99.99,,2013-01-20 08:22:00,
2013-01-20 02:32:00,20.0,15.0,-100.00,NNE,15,6.0,11.0,78,0.00,,,-99.99,,2013-01-20 08:32:00,
2013-01-20 02:42:00,20.0,15.0,-100.00,NNE,15,6.0,11.0,78,0.00,,,-99.99,,2013-01-20 08:42:00,
2013-01-20 02:52:00,20.0,14.0,-100.00,NNE,25,9.0,12.0,77,0.00,,,-99.99,,2013-01-20 08:52:00,
2013-01-20 03:02:00,20.0,14.0,-100.00,NNE,25,9.0,12.0,77,0.00,,,-99.99,,2013-01-20 09:02:00,
2013-01-20 03:12:00,20.0,14.0,-100.00,NNE,25,9.0,12.0,77,0.00,,,-99.99,,2013-01-20 09:12:00,
2013-01-20 03:22:00,20.0,14.0,-100.00,NNE,15,9.0,11.0,76,0.00,,,-99.99,,2013-01-20 09:22:00,
2013-01-20 03:33:00,20.0,14.0,-100.00,NNE,25,6.0,10.0,77,0.00,,,-99.99,,2013-01-20 09:33:00,
2013-01-20 03:42:00,20.0,14.0,-100.00,NNE,25,6.0,10.0,77,0.00,,,-99.99,,2013-01-20 09:42:00,
2013-01-20 03:52:00,19.0,14.0,-100.00,NNE,15,6.0,7.0,78,0.00,,,-99.99,,2013-01-20 09:52:00,
2013-01-20 04:02:00,19.0,14.0,-100.00,NNE,15,6.0,7.0,78,0.00,,,-99.99,,2013-01-20 10:02:00,
2013-01-20 04:12:00,19.0,13.0,-100.00,NNE,25,6.0,8.0,78,0.00,,,-99.99,,2013-01-20 10:12:00,
2013-01-20 04:22:00,19.0,14.0,-100.00,NNE,25,5.0,6.0,80,0.00,,,-99.99,,2013-01-20 10:22:00,
2013-01-20 04:32:00,19.0,14.0,-100.00,NNE,15,7.0,9.0,80,0.00,,,-99.99,,2013-01-20 10:32:00,
2013-01-20 04:42:00,19.0,14.0,-100.00,NNE,15,7.0,9.0,80,0.00,,,-99.99,,2013-01-20 10:42:00,
2013-01-20 04:52:00,19.0,13.0,-100.00,North,0,5.0,7.0,79,0.00,,,-99.99,,2013-01-20 10:52:00,
2013-01-20 05:02:00,19.0,13.0,-100.00,North,0,5.0,7.0,79,0.00,,,-99.99,,2013-01-20 11:02:00,
2013-01-20 05:12:00,19.0,13.0,-100.00,NNE,15,7.0,7.0,79,0.00,,,-99.99,,2013-01-20 11:12:00,
2013-01-20 05:22:00,18.0,13.0,-100.00,NNE,15,5.0,7.0,79,0.00,,,-99.99,,2013-01-20 11:22:00,
2013-01-20 05:33:00,18.0,13.0,-100.00,NNE,15,5.0,6.0,79,0.00,,,-99.99,,2013-01-20 11:33:00,
2013-01-20 05:42:00,18.0,13.0,-100.00,NNE,15,5.0,6.0,79,0.00,,,-99.99,,2013-01-20 11:42:00,
2013-01-20 05:53:00,17.0,12.0,-100.00,NNE,15,6.0,7.0,79,0.00,,,-99.99,,2013-01-20 11:53:00,
2013-01-20 06:03:00,17.0,12.0,-100.00,NNE,15,6.0,7.0,79,0.00,,,-99.99,,2013-01-20 12:03:00,
2013-01-20 06:12:00,17.0,12.0,-100.00,NNE,20,6.0,7.0,79,0.00,,,-99.99,,2013-01-20 12:12:00,
2013-01-20 06:22:00,16.0,11.0,-100.00,NNE,30,6.0,6.0,80,0.00,,,-99.99,,2013-01-20 12:22:00,
2013-01-20 06:33:00,16.0,11.0,-100.00,NE,40,4.0,7.0,81,0.00,,,-99.99,,2013-01-20 12:33:00,
2013-01-20 06:43:00,16.0,11.0,-100.00,NE,40,4.0,7.0,81,0.00,,,-99.99,,2013-01-20 12:43:00,
2013-01-20 06:52:00,15.0,11.0,-100.00,ENE,60,3.0,4.0,81,0.00,,,-99.99,,2013-01-20 12:52:00,
2013-01-20 07:02:00,15.0,11.0,-100.00,ENE,60,3.0,4.0,81,0.00,,,-99.99,,2013-01-20 13:02:00,
2013-01-20 07:12:00,15.0,11.0,-100.00,ENE,65,4.0,5.0,82,0.00,,,-99.99,,2013-01-20 13:12:00,
2013-01-20 07:23:00,15.0,11.0,-100.00,ENE,70,4.0,6.0,83,0.00,,,-99.99,,2013-01-20 13:23:00,
2013-01-20 07:33:00,15.0,11.0,-100.00,ENE,70,6.0,9.0,82,0.00,,,-99.99,,2013-01-20 13:33:00,
2013-01-20 07:42:00,15.0,11.0,-100.00,ENE,70,6.0,9.0,82,0.00,,,-99.99,,2013-01-20 13:42:00,
2013-01-20 07:52:00,15.0,10.0,-100.00,ENE,65,7.0,9.0,81,0.00,,,-99.99,,2013-01-20 13:52:00,
2013-01-20 08:02:00,15.0,10.0,-100.00,ENE,65,7.0,9.0,81,0.00,,,-99.99,,2013-01-20 14:02:00,
2013-01-20 08:12:00,15.0,11.0,-100.00,ENE,75,6.0,9.0,81,0.00,,,-99.99,,2013-01-20 14:12:00,
2013-01-20 08:22:00,16.0,11.0,-100.00,ENE,70,7.0,10.0,81,0.00,,,-99.99,,2013-01-20 14:22:00,
2013-01-20 08:33:00,16.0,11.0,-100.00,ENE,75,7.0,11.0,79,0.00,,,-99.99,,2013-01-20 14:33:00,
2013-01-20 08:42:00,16.0,11.0,-100.00,ENE,75,7.0,11.0,79,0.00,,,-99.99,,2013-01-20 14:42:00,
2013-01-20 08:52:00,16.0,11.0,-100.00,ENE,75,6.0,12.0,78,0.00,,,-99.99,,2013-01-20 14:52:00,
2013-01-20 09:03:00,16.0,11.0,-100.00,ENE,75,6.0,12.0,78,0.00,,,-99.99,,2013-01-20 15:03:00,
2013-01-20 09:12:00,16.0,11.0,-100.00,ENE,65,8.0,9.0,78,0.00,,,-99.99,,2013-01-20 15:12:00,
2013-01-20 09:23:00,17.0,11.0,-100.00,ENE,70,6.0,11.0,78,0.00,,,-99.99,,2013-01-20 15:23:00,
2013-01-20 09:33:00,19.0,12.0,-100.00,ENE,70,8.0,12.0,73,0.00,,,-99.99,,2013-01-20 15:33:00,
2013-01-20 09:42:00,19.0,12.0,-100.00,ENE,70,8.0,12.0,73,0.00,,,-99.99,,2013-01-20 15:42:00,
2013-01-20 09:52:00,20.0,12.0,-100.00,NE,45,7.0,12.0,69,0.00,,,-99.99,,2013-01-20 15:52:00,
2013-01-20 10:03:00,20.0,12.0,-100.00,NE,45,7.0,12.0,69,0.00,,,-99.99,,2013-01-20 16:03:00,
2013-01-20 10:12:00,21.0,12.0,-100.00,ENE,60,7.0,11.0,67,0.00,,,-99.99,,2013-01-20 16:12:00,
2013-01-20 10:23:00,21.0,12.0,-100.00,ENE,75,6.0,11.0,65,0.00,,,-99.99,,2013-01-20 16:23:00,
2013-01-20 10:33:00,22.0,11.0,-100.00,ENE,65,7.0,12.0,61,0.00,,,-99.99,,2013-01-20 16:33:00,
2013-01-20 10:42:00,22.0,11.0,-100.00,ENE,65,7.0,12.0,61,0.00,,,-99.99,,2013-01-20 16:42:00,
2013-01-20 10:52:00,22.0,10.0,-100.00,ENE,60,6.0,11.0,59,0.00,,,-99.99,,2013-01-20 16:52:00,
2013-01-20 11:03:00,22.0,10.0,-100.00,ENE,60,6.0,11.0,59,0.00,,,-99.99,,2013-01-20 17:03:00,
2013-01-20 11:12:00,22.0,9.0,-100.00,ENE,65,7.0,12.0,57,0.00,,,-99.99,,2013-01-20 17:12:00,
2013-01-20 11:22:00,22.0,9.0,-100.00,NE,50,7.0,12.0,55,0.00,,,-99.99,,2013-01-20 17:22:00,
2013-01-20 11:33:00,22.0,8.0,-100.00,ENE,60,7.0,11.0,53,0.00,,,-99.99,,2013-01-20 17:33:00,
2013-01-20 11:42:00,22.0,8.0,-100.00,ENE,60,7.0,11.0,53,0.00,,,-99.99,,2013-01-20 17:42:00,
2013-01-20 11:52:00,24.0,9.0,-100.00,NE,40,9.0,12.0,52,0.00,,,-99.99,,2013-01-20 17:52:00,
2013-01-20 12:03:00,24.0,9.0,-100.00,NE,40,9.0,12.0,52,0.00,,,-99.99,,2013-01-20 18:03:00,
2013-01-20 12:12:00,24.0,9.0,-100.00,NNE,30,7.0,12.0,52,0.00,,,-99.99,,2013-01-20 18:12:00,
2013-01-20 12:23:00,23.0,8.0,-100.00,North,10,7.0,11.0,51,0.00,,,-99.99,,2013-01-20 18:23:00,
2013-01-20 12:33:00,23.0,8.0,-100.00,NE,35,9.0,16.0,52,0.00,,,-99.99,,2013-01-20 18:33:00,
2013-01-20 12:42:00,23.0,8.0,-100.00,NE,35,9.0,16.0,52,0.00,,,-99.99,,2013-01-20 18:42:00,
2013-01-20 12:53:00,24.0,9.0,-100.00,NE,35,13.0,17.0,52,0.00,,,-99.99,,2013-01-20 18:53:00,
2013-01-20 13:02:00,24.0,9.0,-100.00,NE,35,13.0,17.0,52,0.00,,,-99.99,,2013-01-20 19:02:00,
2013-01-20 13:12:00,23.0,8.0,-100.00,NE,35,12.0,17.0,52,0.00,,,-99.99,,2013-01-20 19:12:00,
2013-01-20 13:22:00,23.0,9.0,-100.00,NE,40,13.0,17.0,53,0.00,,,-99.99,,2013-01-20 19:22:00,
2013-01-20 13:33:00,22.0,9.0,-100.00,NNE,30,9.0,16.0,54,0.00,,,-99.99,,2013-01-20 19:33:00,
2013-01-20 13:42:00,22.0,9.0,-100.00,NNE,30,9.0,16.0,54,0.00,,,-99.99,,2013-01-20 19:42:00,
2013-01-20 13:52:00,22.0,8.0,-100.00,NNE,25,11.0,17.0,54,0.00,,,-99.99,,2013-01-20 19:52:00,
2013-01-20 14:03:00,22.0,8.0,-100.00,NNE,25,11.0,17.0,54,0.00,,,-99.99,,2013-01-20 20:03:00,
2013-01-20 14:12:00,22.0,9.0,-100.00,NNE,25,9.0,14.0,55,0.00,,,-99.99,,2013-01-20 20:12:00,
2013-01-20 14:22:00,22.0,8.0,-100.00,NNE,20,9.0,12.0,55,0.00,,,-99.99,,2013-01-20 20:22:00,
2013-01-20 14:33:00,22.0,8.0,-100.00,NNE,15,9.0,12.0,55,0.00,,,-99.99,,2013-01-20 20:33:00,
2013-01-20 14:42:00,22.0,8.0,-100.00,NNE,25,7.0,11.0,54,0.00,,,-99.99,,2013-01-20 20:42:00,
2013-01-20 14:53:00,22.0,8.0,-100.00,NNE,25,12.0,14.0,53,0.00,,,-99.99,,2013-01-20 20:53:00,
2013-01-20 15:03:00,22.0,8.0,-100.00,NNE,25,12.0,14.0,53,0.00,,,-99.99,,2013-01-20 21:03:00,
2013-01-20 15:13:00,22.0,8.0,-100.00,North,10,9.0,15.0,54,0.00,,,-99.99,,2013-01-20 21:13:00,
2013-01-20 15:23:00,22.0,8.0,-100.00,North,0,11.0,12.0,54,0.00,,,-99.99,,2013-01-20 21:23:00,
2013-01-20 15:33:00,22.0,8.0,-100.00,NNE,20,12.0,15.0,53,0.00,,,-99.99,,2013-01-20 21:33:00,
2013-01-20 15:43:00,22.0,8.0,-100.00,NNE,20,12.0,15.0,53,0.00,,,-99.99,,2013-01-20 21:43:00,
2013-01-20 15:52:00,23.0,8.0,-100.00,NE,35,12.0,16.0,52,0.00,,,-99.99,,2013-01-20 21:52:00,
2013-01-20 16:03:00,23.0,8.0,-100.00,NNE,25,10.0,14.0,53,0.00,,,-99.99,,2013-01-20 22:03:00,
2013-01-20 16:12:00,22.0,8.0,-100.00,NE,35,12.0,14.0,53,0.00,,,-99.99,,2013-01-20 22:12:00,
2013-01-20 16:22:00,22.0,8.0,-100.00,NNE,30,11.0,16.0,54,0.00,,,-99.99,,2013-01-20 22:22:00,
2013-01-20 16:33:00,22.0,9.0,-100.00,NE,35,13.0,19.0,55,0.00,,,-99.99,,2013-01-20 22:33:00,
2013-01-20 16:43:00,22.0,9.0,-100.00,NE,35,13.0,19.0,55,0.00,,,-99.99,,2013-01-20 22:43:00,
2013-01-20 16:52:00,22.0,8.0,-100.00,NNE,30,14.0,17.0,56,0.00,,,-99.99,,2013-01-20 22:52:00,
2013-01-20 17:03:00,22.0,8.0,-100.00,NNE,30,14.0,17.0,56,0.00,,,-99.99,,2013-01-20 23:03:00,
2013-01-20 17:13:00,21.0,8.0,-100.00,NNE,30,12.0,17.0,56,0.00,,,-99.99,,2013-01-20 23:13:00,
2013-01-20 17:23:00,21.0,8.0,-100.00,NNE,30,10.0,14.0,57,0.00,,,-99.99,,2013-01-20 23:23:00,
2013-01-20 17:33:00,21.0,9.0,-100.00,NNE,30,12.0,15.0,58,0.00,,,-99.99,,2013-01-20 23:33:00,
2013-01-20 17:42:00,21.0,9.0,-100.00,NNE,30,12.0,15.0,58,0.00,,,-99.99,,2013-01-20 23:42:00,
2013-01-20 17:52:00,20.0,9.0,-100.00,NNE,30,10.0,14.0,59,0.00,,,-99.99,,2013-01-20 23:52:00,
2013-01-20 18:03:00,20.0,9.0,-100.00,NNE,30,9.0,13.0,61,0.00,,,-99.99,,2013-01-21 00:03:00,
2013-01-20 18:13:00,20.0,10.0,-100.00,NNE,25,11.0,12.0,62,0.00,,,-99.99,,2013-01-21 00:13:00,
2013-01-20 18:22:00,20.0,10.0,-100.00,NNE,25,11.0,14.0,63,0.00,,,-99.99,,2013-01-21 00:22:00,
2013-01-20 18:33:00,20.0,10.0,-100.00,NNE,25,9.0,12.0,66,0.00,,,-99.99,,2013-01-21 00:33:00,
2013-01-20 18:42:00,20.0,10.0,-100.00,NNE,25,9.0,12.0,66,0.00,,,-99.99,,2013-01-21 00:42:00,
2013-01-20 18:53:00,19.0,10.0,-100.00,NNE,25,8.0,10.0,69,0.00,,,-99.99,,2013-01-21 00:53:00,
2013-01-20 19:03:00,19.0,10.0,-100.00,NNE,25,8.0,10.0,69,0.00,,,-99.99,,2013-01-21 01:03:00,
2013-01-20 19:12:00,18.0,10.0,-100.00,NNE,15,7.0,9.0,70,0.00,,,-99.99,,2013-01-21 01:12:00,
2013-01-20 19:22:00,17.0,10.0,-100.00,NNE,20,7.0,8.0,72,0.00,,,-99.99,,2013-01-21 01:22:00,
2013-01-20 19:33:00,16.0,10.0,-100.00,NNE,25,7.0,9.0,75,0.00,,,-99.99,,2013-01-21 01:33:00,
2013-01-20 19:43:00,16.0,10.0,-100.00,NNE,25,7.0,9.0,75,0.00,,,-99.99,,2013-01-21 01:43:00,
2013-01-20 19:52:00,16.0,10.0,-100.00,NNE,20,6.0,7.0,77,0.00,,,-99.99,,2013-01-21 01:52:00,
2013-01-20 20:03:00,16.0,10.0,-100.00,NNE,20,6.0,7.0,77,0.00,,,-99.99,,2013-01-21 02:03:00,
2013-01-20 20:12:00,16.0,11.0,-100.00,North,5,4.0,6.0,78,0.00,,,-99.99,,2013-01-21 02:12:00,
2013-01-20 20:23:00,16.0,11.0,-100.00,North,350,4.0,4.0,78,0.00,,,-99.99,,2013-01-21 02:23:00,
2013-01-20 20:33:00,16.0,11.0,-100.00,North,355,3.0,4.0,80,0.00,,,-99.99,,2013-01-21 02:33:00,
2013-01-20 20:43:00,16.0,11.0,-100.00,North,355,3.0,4.0,80,0.00,,,-99.99,,2013-01-21 02:43:00,
2013-01-20 20:53:00,15.0,10.0,-100.00,North,350,4.0,6.0,81,0.00,,,-99.99,,2013-01-21 02:53:00,
2013-01-20 21:03:00,15.0,10.0,-100.00,North,350,4.0,6.0,81,0.00,,,-99.99,,2013-01-21 03:03:00,
2013-01-20 21:12:00,14.0,10.0,-100.00,NNW,340,6.0,6.0,82,0.00,,,-99.99,,2013-01-21 03:12:00,
2013-01-20 21:23:00,14.0,10.0,-100.00,NNW,345,7.0,8.0,83,0.00,,,-99.99,,2013-01-21 03:23:00,
2013-01-20 21:33:00,15.0,11.0,-100.00,NNW,340,6.0,7.0,84,0.00,,,-99.99,,2013-01-21 03:33:00,
2013-01-20 21:43:00,15.0,11.0,-100.00,NNW,340,6.0,7.0,84,0.00,,,-99.99,,2013-01-21 03:43:00,
2013-01-20 21:52:00,15.0,12.0,-100.00,NNW,340,8.0,9.0,84,0.00,,,-99.99,,2013-01-21 03:52:00,
2013-01-20 22:03:00,15.0,12.0,-100.00,NNW,340,8.0,9.0,84,0.00,,,-99.99,,2013-01-21 04:03:00,
2013-01-20 22:12:00,16.0,12.0,-100.00,NNW,345,7.0,9.0,84,0.00,,,-99.99,,2013-01-21 04:12:00,
2013-01-20 22:23:00,15.0,11.0,-100.00,North,355,6.0,9.0,84,0.00,,,-99.99,,2013-01-21 04:23:00,
2013-01-20 22:32:00,16.0,12.0,-100.00,North,355,6.0,9.0,84,0.00,,,-99.99,,2013-01-21 04:32:00,
2013-01-20 22:42:00,16.0,12.0,-100.00,North,355,6.0,9.0,84,0.00,,,-99.99,,2013-01-21 04:42:00,
2013-01-20 22:52:00,15.0,11.0,-100.00,North,5,9.0,11.0,84,0.00,,,-99.99,,2013-01-21 04:52:00,
2013-01-20 23:03:00,15.0,11.0,-100.00,North,5,9.0,11.0,84,0.00,,,-99.99,,2013-01-21 05:03:00,
2013-01-20 23:12:00,14.0,10.0,-100.00,NNE,30,7.0,11.0,84,0.00,,,-99.99,,2013-01-21 05:12:00,
2013-01-20 23:22:00,14.0,10.0,-100.00,NNE,30,7.0,10.0,85,0.00,,,-99.99,,2013-01-21 05:22:00,
2013-01-20 23:33:00,13.0,10.0,-100.00,NNE,25,1.0,5.0,84,0.00,,,-99.99,,2013-01-21 05:33:00,
2013-01-20 23:42:00,13.0,10.0,-100.00,NNE,25,1.0,5.0,84,0.00,,,-99.99,,2013-01-21 05:42:00,
2013-01-20 23:52:00,12.0,9.0,-100.00,West,260,4.0,6.0,84,0.00,,,-99.99,,2013-01-21 05:52:00,